When you browse on this site, cookies collect data to enhance your experience and personalize the content and advertising you see.
Visit our Privacy Policy to learn more. By continuing to use the site, you agree to this use of cookies and data.
  • în România
  • Lista ţărilor
  • Pe 7 zile
  • Temperatura apei
  • Meteo pe hartă
  • Widget-uri
  • user-avatar
    Intrare

    Meteo pe oră la Kaposvar

    Astăzi, 23 Ianuarie, Joi

    Timp Temperatura Precipitaţii Vânt Presiune Umiditate
    00:00 -1°C° 0 mm 3 m/s 760 mmHg 72%
    01:00 -1°C° 0 mm 3 m/s 760 mmHg 77%
    02:00 -1°C° 0 mm 2 m/s 760 mmHg 79%
    03:00 -2°C° 0 mm 2 m/s 761 mmHg 81%
    04:00 0°C° 0 mm 1 m/s 761 mmHg 83%
    05:00 0°C° 0 mm 1 m/s 761 mmHg 84%
    06:00 0°C° 0 mm 1 m/s 761 mmHg 85%
    07:00 -2°C° 0 mm 0 m/s 762 mmHg 84%
    08:00 0°C° 0 mm 0 m/s 762 mmHg 79%
    09:00 +2°C° 0 mm 1 m/s 762 mmHg 74%
    10:00 +3°C° 0 mm 1 m/s 763 mmHg 68%
    11:00 +4°C° 0 mm 1 m/s 762 mmHg 65%
    12:00 +4°C° 0 mm 1 m/s 762 mmHg 62%
    13:00 +5°C° 0 mm 1 m/s 762 mmHg 58%
    14:00 +4°C° 0 mm 1 m/s 761 mmHg 62%
    15:00 +4°C° 0 mm 1 m/s 761 mmHg 66%
    16:00 +3°C° 0 mm 1 m/s 760 mmHg 69%
    17:00 +2°C° 0 mm 1 m/s 760 mmHg 73%
    18:00 +1°C° 0 mm 1 m/s 760 mmHg 76%
    19:00 -2°C° 0 mm 2 m/s 759 mmHg 79%
    20:00 -2°C° 0 mm 2 m/s 759 mmHg 80%
    21:00 -2°C° 0 mm 2 m/s 759 mmHg 80%
    22:00 -2°C° 0 mm 2 m/s 759 mmHg 81%
    23:00 -2°C° 0 mm 2 m/s 758 mmHg 81%

    Mâine, 24 Ianuarie, Vineri

    Timp Temperatura Precipitaţii Vânt Presiune Umiditate
    00:00 -2°C° 0 mm 2 m/s 758 mmHg 81%
    01:00 -3°C° 0 mm 2 m/s 758 mmHg 80%
    02:00 -3°C° 0 mm 2 m/s 757 mmHg 80%
    03:00 -3°C° 0 mm 2 m/s 757 mmHg 80%
    04:00 -3°C° 0 mm 2 m/s 756 mmHg 80%
    05:00 -3°C° 0 mm 2 m/s 756 mmHg 80%
    06:00 -3°C° 0 mm 2 m/s 756 mmHg 80%
    07:00 -3°C° 0 mm 2 m/s 756 mmHg 80%
    08:00 -2°C° 0 mm 2 m/s 756 mmHg 74%
    09:00 -1°C° 0 mm 2 m/s 756 mmHg 69%
    10:00 +1°C° 0 mm 2 m/s 756 mmHg 64%
    11:00 +2°C° 0 mm 2 m/s 755 mmHg 60%
    12:00 +3°C° 0 mm 2 m/s 755 mmHg 56%
    13:00 +4°C° 0 mm 2 m/s 755 mmHg 52%
    14:00 +3°C° 0 mm 2 m/s 754 mmHg 56%
    15:00 +4°C° 0 mm 1 m/s 754 mmHg 60%
    16:00 +3°C° 0 mm 1 m/s 753 mmHg 64%
    17:00 +3°C° 0 mm 1 m/s 753 mmHg 68%
    18:00 +2°C° 0 mm 1 m/s 753 mmHg 71%
    19:00 -1°C° 0 mm 2 m/s 753 mmHg 75%
    20:00 -1°C° 0 mm 2 m/s 753 mmHg 76%
    21:00 -1°C° 0 mm 2 m/s 753 mmHg 77%
    22:00 -1°C° 0 mm 2 m/s 753 mmHg 78%
    23:00 -1°C° 0 mm 2 m/s 753 mmHg 81%

    Poimâine, 25 Ianuarie, Sâmbătă

    Timp Temperatura Precipitaţii Vânt Presiune Umiditate
    00:00 -1°C° 0 mm 2 m/s 753 mmHg 85%
    01:00 +1°C° 0 mm 2 m/s 753 mmHg 88%
    02:00 +1°C° 0 mm 2 m/s 752 mmHg 89%
    03:00 +1°C° 0 mm 2 m/s 752 mmHg 90%
    04:00 +1°C° 0 mm 2 m/s 751 mmHg 91%
    05:00 +1°C° 0 mm 2 m/s 752 mmHg 91%
    06:00 +1°C° 0 mm 2 m/s 752 mmHg 91%
    07:00 +1°C° 0 mm 2 m/s 752 mmHg 90%
    08:00 +2°C° 0 mm 2 m/s 752 mmHg 88%
    09:00 +4°C° 0 mm 1 m/s 752 mmHg 85%
    10:00 +5°C° 0 mm 1 m/s 752 mmHg 83%
    11:00 +6°C° 0 mm 1 m/s 752 mmHg 81%
    12:00 +7°C° 0 mm 1 m/s 751 mmHg 78%
    13:00 +8°C° 0 mm 1 m/s 751 mmHg 76%
    14:00 +7°C° 0 mm 1 m/s 751 mmHg 79%
    15:00 +7°C° 0 mm 1 m/s 750 mmHg 81%
    16:00 +7°C° 0 mm 1 m/s 750 mmHg 83%
    17:00 +6°C° 0 mm 1 m/s 750 mmHg 85%
    18:00 +5°C° 0 mm 1 m/s 750 mmHg 87%
    19:00 +5°C° 0 mm 1 m/s 751 mmHg 89%
    20:00 +5°C° 0 mm 1 m/s 751 mmHg 89%
    21:00 +5°C° 0 mm 1 m/s 751 mmHg 90%
    22:00 +4°C° 0 mm 0 m/s 751 mmHg 90%
    23:00 +4°C° 0 mm 1 m/s 751 mmHg 91%

    26 Ianuarie, Duminică

    Timp Temperatura Precipitaţii Vânt Presiune Umiditate
    00:00 +4°C° 0 mm 1 m/s 751 mmHg 91%
    01:00 +4°C° 0 mm 1 m/s 751 mmHg 92%
    02:00 +4°C° 0 mm 1 m/s 751 mmHg 92%
    03:00 +4°C° 0 mm 1 m/s 750 mmHg 93%
    04:00 +4°C° 0 mm 1 m/s 750 mmHg 93%
    05:00 +4°C° 0 mm 1 m/s 750 mmHg 93%
    06:00 +4°C° 0 mm 1 m/s 751 mmHg 93%
    07:00 +4°C° 0 mm 1 m/s 751 mmHg 94%
    08:00 +4°C° 0 mm 1 m/s 751 mmHg 92%
    09:00 +5°C° 0 mm 1 m/s 751 mmHg 90%
    10:00 +5°C° 0 mm 1 m/s 751 mmHg 88%
    11:00 +6°C° 0.1 mm 1 m/s 751 mmHg 87%
    12:00 +6°C° 0.1 mm 1 m/s 751 mmHg 85%
    13:00 +7°C° 0.1 mm 1 m/s 751 mmHg 84%
    14:00 +7°C° 0 mm 1 m/s 751 mmHg 85%
    15:00 +7°C° 0 mm 1 m/s 751 mmHg 86%
    16:00 +7°C° 0 mm 1 m/s 750 mmHg 87%
    17:00 +6°C° 0.1 mm 1 m/s 751 mmHg 89%
    18:00 +6°C° 0.1 mm 1 m/s 751 mmHg 90%
    19:00 +6°C° 0.1 mm 1 m/s 751 mmHg 92%
    20:00 +5°C° 0.2 mm 1 m/s 751 mmHg 92%
    21:00 +5°C° 0.2 mm 1 m/s 751 mmHg 93%
    22:00 +5°C° 0.2 mm 1 m/s 751 mmHg 93%
    23:00 +5°C° 0.1 mm 1 m/s 751 mmHg 94%

    27 Ianuarie, Luni

    Timp Temperatura Precipitaţii Vânt Presiune Umiditate
    00:00 +5°C° 0.1 mm 1 m/s 751 mmHg 94%
    01:00 +5°C° 0.1 mm 1 m/s 750 mmHg 95%
    02:00 +5°C° 0 mm 1 m/s 750 mmHg 95%
    03:00 +4°C° 0 mm 1 m/s 750 mmHg 95%
    04:00 +4°C° 0 mm 1 m/s 750 mmHg 96%
    05:00 +4°C° 0 mm 1 m/s 750 mmHg 96%
    06:00 +3°C° 0 mm 0 m/s 750 mmHg 96%
    07:00 +3°C° 0 mm 0 m/s 751 mmHg 96%
    08:00 +4°C° 0 mm 0 m/s 751 mmHg 94%
    09:00 +4°C° 0 mm 0 m/s 751 mmHg 91%
    10:00 +6°C° 0 mm 1 m/s 751 mmHg 89%
    11:00 +7°C° 0 mm 1 m/s 751 mmHg 86%
    12:00 +7°C° 0 mm 1 m/s 751 mmHg 82%
    13:00 +7°C° 0 mm 2 m/s 750 mmHg 79%
    14:00 +7°C° 0 mm 2 m/s 750 mmHg 80%
    15:00 +7°C° 0 mm 1 m/s 750 mmHg 82%
    16:00 +7°C° 0 mm 1 m/s 750 mmHg 83%
    17:00 +6°C° 0 mm 1 m/s 750 mmHg 86%
    18:00 +5°C° 0 mm 2 m/s 750 mmHg 90%
    19:00 +4°C° 0 mm 2 m/s 750 mmHg 93%
    20:00 +4°C° 0 mm 2 m/s 750 mmHg 93%
    21:00 +4°C° 0 mm 2 m/s 750 mmHg 93%
    22:00 +4°C° 0 mm 2 m/s 749 mmHg 93%
    23:00 +3°C° 0 mm 2 m/s 749 mmHg 93%

    28 Ianuarie, Marţi

    Timp Temperatura Precipitaţii Vânt Presiune Umiditate
    00:00 +3°C° 0 mm 2 m/s 749 mmHg 94%
    01:00 +3°C° 0 mm 2 m/s 748 mmHg 94%
    02:00 +2°C° 0 mm 3 m/s 748 mmHg 93%
    03:00 +3°C° 0 mm 3 m/s 747 mmHg 93%
    04:00 +3°C° 0 mm 3 m/s 747 mmHg 93%
    05:00 +3°C° 0 mm 4 m/s 747 mmHg 90%
    06:00 +3°C° 0 mm 4 m/s 746 mmHg 86%
    07:00 +3°C° 0 mm 5 m/s 746 mmHg 83%
    08:00 +4°C° 0 mm 6 m/s 745 mmHg 79%
    09:00 +5°C° 0 mm 6 m/s 745 mmHg 74%
    10:00 +6°C° 0 mm 7 m/s 745 mmHg 69%
    11:00 +9°C° 0 mm 7 m/s 744 mmHg 66%
    12:00 +10°C° 0 mm 7 m/s 744 mmHg 64%
    13:00 +11°C° 0 mm 8 m/s 743 mmHg 61%
    14:00 +11°C° 0 mm 7 m/s 743 mmHg 62%
    15:00 +10°C° 0 mm 6 m/s 743 mmHg 64%
    16:00 +10°C° 0 mm 6 m/s 743 mmHg 65%
    17:00 +9°C° 0 mm 5 m/s 744 mmHg 69%
    18:00 +10°C° 0 mm 4 m/s 744 mmHg 73%
    19:00 +8°C° 0 mm 4 m/s 744 mmHg 76%
    20:00 +8°C° 0 mm 4 m/s 745 mmHg 76%
    21:00 +8°C° 0 mm 4 m/s 745 mmHg 76%
    22:00 +8°C° 0 mm 4 m/s 745 mmHg 76%
    23:00 +8°C° 0 mm 4 m/s 745 mmHg 77%
    Arată mai mult